Current weather by "City, St" or "zip code"  
 

Current Conditions: Rush City Regional Airport, MN

Fair


36.0 F

Last Updated on Sep 18 2020, 12:55 am CDT
Humidity: 87%
Wind Speed: N 0.0 mph
Barometer 30.37 in
Dewpoint: 32.2 F
Visibility: 10.00 mi
Precip: --
Heat Index: NA
Wind Chill: NA
Current conditions at:

Rush City Regional Airport, MN (KROS)

Lat: 45.69628 Lon: 92.95424

Local Radar Image active severe weather and emergency alerts image image weather storm and storm spotter reports image weather observation monitoring service image
Local
Radar
Active
Alerts
Storm Reports Obs
Monitoring

Sign-up For Email & Text Message Weather Alert Notification Services



Advertise Here

Observation History for Rush City Regional Airport, MN


Time Wind
(mph)
Vis
(mi)
Weather Precip (in) Temperature (F) Relative
Humidity
Wind
Chill
(F)
Heat
Index
(F)
Pressure
Air Dwpt altimeter
(in)
sea level
(mb)
Rmks
12:55 am CDT N 0.0 10.00 Fair -- 36.0 32.2 87% NA NA 30.37 M
11:55 pm CDT N 0.0 10.00 Partly Cloudy -- 37.0 34.5 91% NA NA 30.36 M
10:55 pm CDT N 3.5 10.00 Partly Cloudy -- 41.0 36.9 86% NA NA 30.35 M
9:55 pm CDT N 0.0 10.00 Fair -- 41.0 37.6 87% NA NA 30.34 M
8:55 pm CDT N 0.0 10.00 Partly Cloudy -- 43.0 37.4 82% NA NA 30.31 M
7:55 pm CDT N 0.0 10.00 Mostly Cloudy -- 45.0 38.8 79% NA NA 30.30 M
6:55 pm CDT N 0.0 10.00 Partly Cloudy -- 52.0 36.9 56% NA NA 30.28 M
5:55 pm CDT N 4.6 10.00 Fair -- 55.0 33.1 44% 54 NA 30.28 M
4:55 pm CDT N 11.5 G 17.3 10.00 Partly Cloudy -- 58.0 32.0 38% 56 NA 30.28 M
3:55 pm CDT N 0.0 10.00 Fair -- 57.0 32.2 40% NA NA 30.29 M
2:55 pm CDT N 9.2 G 17.3 10.00 Partly Cloudy -- 56.0 30.7 38% 54 NA 30.30 M
1:55 pm CDT N 8.1 10.00 Overcast -- 56.0 30.6 39% 54 NA 30.30 M
12:55 pm CDT N 4.6 10.00 Mostly Cloudy -- 53.0 31.1 43% 52 NA 30.31 M
11:55 am CDT NE 4.6 10.00 Overcast -- 51.0 31.8 48% 50 NA 30.33 M
10:55 am CDT N 5.8 10.00 Overcast -- 49.0 32.7 53% 47 NA 30.33 M
9:55 am CDT NE 3.5 10.00 Partly Cloudy -- 47.0 34.0 62% NA NA 30.33 M
8:55 am CDT NE 4.6 10.00 Fair -- 43.0 35.8 76% 40 NA 30.31 M
7:55 am CDT N 3.5 10.00 Mostly Cloudy -- 38.0 35.6 92% NA NA 30.31 M
6:55 am CDT N 0.0 10.00 Mostly Cloudy -- 35.0 32.7 93% NA NA 30.29 M
5:55 am CDT N 0.0 10.00 Partly Cloudy -- 35.0 32.7 93% NA NA 30.28 M
4:55 am CDT N 0.0 10.00 Partly Cloudy -- 37.0 34.0 87% NA NA 30.27 M
3:55 am CDT N 0.0 10.00 Partly Cloudy -- 38.0 34.5 86% NA NA 30.27 M
2:55 am CDT N 0.0 10.00 Partly Cloudy -- 39.0 34.7 85% NA NA 30.26 M
1:55 am CDT N 3.5 10.00 Partly Cloudy -- 42.0 35.8 80% NA NA 30.26 M

Regional Weather Observation


Cambridge Municipal Airport, MN (KCBG)

Fair
41.0 F

Rush City Regional Airport, MN (KROS)

Fair
36.0 F

Hinckley Field of Dreams Airport, MN (K04W)

Fair
34.0 F

Princeton, MN (KPNM)

Fair
39.0 F

Siren, Burnett County Airport, WI (KRZN)

Fair
32.0 F

Minneapolis / Blaine, MN (KANE)

Fair
45.0 F